Cleveland, OH

7:08 AM EDT on September 30, 2016 (GMT -0400)
Burke Lakefront

Weather History for KBKL - January, 2013

Change the Weather History Date:

Monday, January 21, 2013

  Actual Average Record
Temperature  
Mean Temperature 16 °F -  
Max Temperature 21 °F 31 °F 57 °F (2006)
Min Temperature 12 °F 20 °F 6 °F (2009)
Degree Days  
Heating Degree Days 48    
Moisture  
Dew Point 10 °F    
Average Humidity 72    
Maximum Humidity 86    
Minimum Humidity 51    
Precipitation  
Precipitation 0.00 in - - ()
Sea Level Pressure  
Sea Level Pressure 30.04 in    
Wind  
Wind Speed 19 mph (WSW)    
Max Wind Speed 33 mph    
Max Gust Speed 46 mph    
Visibility 5 miles    
Events Fog , Snow    
Averages and records for this station are not official NWS values.
T = Trace of Precipitation, MM = Missing Value Source: NWS Daily Summary

Daily Weather History Graph

Daily Weather History Graph

Search for Another Location

Airport or City:

Trip Planner

Search our weather history database for the weather conditions in past years. The results will help you decide how hot, cold, wet, or windy it might be!

Date:

Astronomy

Jan. 21, 2013 Rise Set
Actual Time 7:47 AM EST 5:29 PM EST
Civil Twilight 7:17 AM EST 5:59 PM EST
Nautical Twilight 6:43 AM EST 6:33 PM EST
Astronomical Twilight 6:10 AM EST 7:06 PM EST
Moon 1:08 PM EST (1/21) 3:14 AM EST (1/21)
Length of Visible Light 10h 42m
Length of Day
9h 41m
Waxing Gibbous, 75% of the Moon is Illuminated
Jan 21
Waxing Gibbous
Jan 26
Full
Feb 3
Last Quarter
Feb 10
New
Feb 17
First Quarter

Hourly Weather History & Observations

Time (EST) Temp. Windchill Dew Point Humidity Pressure Visibility Wind Dir Wind Speed Gust Speed Precip Events Conditions
12:53 AM 21.9 °F 9.2 °F 12.0 °F 66% 30.14 in 10.0 mi WSW 13.8 mph - 0.00 in   Overcast
1:14 AM 21.2 °F 8.9 °F 10.4 °F 63% 30.10 in 10.0 mi WSW 12.7 mph - 0.00 in   Overcast
1:53 AM 21.9 °F 8.7 °F 12.0 °F 66% 30.12 in 9.0 mi WSW 15.0 mph 20.7 mph 0.00 in   Overcast
2:53 AM 19.9 °F 7.9 °F 10.9 °F 68% 30.12 in 9.0 mi SW 11.5 mph - 0.00 in Snow Light Snow
3:02 AM 21.2 °F 8.9 °F 10.4 °F 63% 30.09 in 9.0 mi SW 12.7 mph - 0.00 in Snow Light Snow
3:53 AM 19.9 °F 6.7 °F 9.0 °F 62% 30.11 in 10.0 mi SW 13.8 mph - 0.00 in   Overcast
4:53 AM 19.9 °F 7.3 °F 9.0 °F 62% 30.09 in 10.0 mi SW 12.7 mph - 0.00 in   Overcast
5:53 AM 19.9 °F 8.6 °F 9.0 °F 62% 30.07 in 10.0 mi SSW 10.4 mph - N/A   Overcast
6:53 AM 19.9 °F 7.3 °F 8.1 °F 60% 30.07 in 10.0 mi SW 12.7 mph - N/A   Overcast
7:53 AM 19.0 °F 5.6 °F 7.0 °F 59% 30.05 in 10.0 mi SW 13.8 mph - N/A   Overcast
8:53 AM 19.9 °F 7.9 °F 7.0 °F 57% 30.05 in 10.0 mi SW 11.5 mph - N/A   Overcast
9:53 AM 19.9 °F 6.7 °F 8.1 °F 60% 30.04 in 10.0 mi SW 13.8 mph - N/A   Overcast
10:53 AM 21.9 °F 9.2 °F 7.0 °F 53% 30.02 in 10.0 mi WSW 13.8 mph - N/A   Overcast
11:53 AM 21.9 °F 8.7 °F 12.9 °F 68% 30.00 in 9.0 mi SW 15.0 mph - 0.00 in   Overcast
12:53 PM 21.9 °F 8.7 °F 6.1 °F 51% 29.96 in 10.0 mi WSW 15.0 mph 25.3 mph N/A   Overcast
1:53 PM 21.9 °F 6.2 °F 8.1 °F 55% 29.96 in 10.0 mi West 21.9 mph 26.5 mph N/A   Overcast
2:53 PM 21.0 °F 4.3 °F 10.9 °F 65% 29.97 in 9.0 mi WSW 24.2 mph 32.2 mph 0.00 in Snow Light Snow
3:33 PM 19.4 °F 1.4 °F 10.4 °F 68% 29.96 in 1.5 mi WSW 26.5 mph 34.5 mph 0.00 in Snow Light Snow
3:36 PM 17.6 °F 0.1 °F 12.2 °F 79% 29.97 in 0.8 mi WSW 23.0 mph 34.5 mph 0.00 in Snow Light Snow
3:45 PM 17.6 °F 2.2 °F 12.2 °F 79% 29.97 in 5.0 mi WSW 17.3 mph 28.8 mph 0.00 in Snow Light Snow
3:53 PM 19.0 °F 2.7 °F 10.0 °F 68% 30.00 in 9.0 mi WSW 20.7 mph 29.9 mph 0.00 in   Overcast
4:08 PM 19.4 °F -0.0 °F 14.0 °F 80% 29.97 in 7.0 mi West 32.2 mph 39.1 mph N/A   Overcast
4:53 PM 17.1 °F -0.3 °F 10.0 °F 74% 30.03 in 7.0 mi WSW 21.9 mph 27.6 mph 0.00 in Snow Light Snow
5:33 PM 17.6 °F 1.3 °F 10.4 °F 73% 30.00 in 1.8 mi WSW 19.6 mph 34.5 mph 0.00 in Snow Light Snow
5:40 PM 17.6 °F 0.9 °F 10.4 °F 73% 30.00 in 2.5 mi WSW 20.7 mph 26.5 mph 0.00 in Snow Light Snow
5:46 PM 17.6 °F 0.5 °F 10.4 °F 73% 30.00 in 6.0 mi SW 21.9 mph 31.1 mph 0.00 in Snow Light Snow
5:53 PM 17.1 °F -1.7 °F 10.9 °F 77% 30.04 in 6.0 mi West 26.5 mph 33.4 mph 0.00 in Snow Light Snow
5:58 PM 17.6 °F -1.9 °F 14.0 °F 86% 30.00 in 0.8 mi West 29.9 mph 46.0 mph 0.00 in Snow Light Snow
6:13 PM 15.8 °F -1.9 °F 12.2 °F 86% 30.01 in 0.5 mi SW 21.9 mph 31.1 mph 0.00 in Fog , Snow Snow
6:24 PM 15.8 °F -0.6 °F 12.2 °F 86% 30.01 in 5.0 mi WSW 18.4 mph 24.2 mph 0.00 in Snow Light Snow
6:31 PM 17.6 °F 0.1 °F 14.0 °F 86% 30.01 in 2.5 mi WSW 23.0 mph 32.2 mph 0.00 in Snow Light Snow
6:34 PM 15.8 °F -1.9 °F 12.2 °F 86% 30.01 in 1.8 mi WSW 21.9 mph 32.2 mph 0.00 in Snow Light Snow
6:50 PM 15.8 °F -3.4 °F 10.4 °F 79% 30.01 in 2.5 mi WSW 26.5 mph 32.2 mph 0.00 in Snow Light Snow
6:53 PM 16.0 °F -2.8 °F 10.0 °F 77% 30.04 in 4.0 mi WSW 25.3 mph 32.2 mph 0.00 in Snow Light Snow
7:11 PM 15.8 °F -2.7 °F 10.4 °F 79% 30.02 in 1.8 mi WSW 24.2 mph 32.2 mph 0.00 in Snow Light Snow
7:20 PM 15.8 °F -2.7 °F 12.2 °F 86% 30.02 in 0.5 mi WSW 24.2 mph 32.2 mph 0.00 in Fog , Snow Snow
7:30 PM 15.8 °F -1.9 °F 10.4 °F 79% 30.02 in 2.0 mi WSW 21.9 mph 28.8 mph 0.00 in Snow Light Snow
7:38 PM 15.8 °F -1.5 °F 10.4 °F 79% 30.02 in 7.0 mi SW 20.7 mph 28.8 mph 0.00 in   Overcast
7:46 PM 15.8 °F -1.1 °F 10.4 °F 79% 30.02 in 7.0 mi SW 19.6 mph 24.2 mph 0.00 in   Overcast
7:53 PM 15.1 °F -2.0 °F 10.0 °F 80% 30.05 in 7.0 mi SW 19.6 mph - 0.00 in   Overcast
8:53 PM 15.1 °F -4.4 °F 6.1 °F 68% 30.06 in 10.0 mi WSW 26.5 mph 33.4 mph N/A   Overcast
9:15 PM 15.8 °F -3.7 °F 8.6 °F 73% 30.04 in 1.5 mi West 27.6 mph 34.5 mph 0.00 in Snow Light Snow
9:20 PM 15.8 °F -4.4 °F 12.2 °F 86% 30.04 in 0.5 mi West 29.9 mph 36.8 mph 0.00 in Fog , Snow Snow
9:29 PM 15.8 °F -4.4 °F 12.2 °F 86% 30.04 in 0.5 mi West 29.9 mph 39.1 mph 0.00 in Fog , Snow Snow
9:44 PM 15.8 °F -4.1 °F 12.2 °F 86% 30.04 in 0.2 mi West 28.8 mph 42.6 mph 0.00 in Fog , Snow Heavy Snow
9:53 PM 15.1 °F -4.7 °F 8.1 °F 74% 30.08 in 0.8 mi West 27.6 mph 38.0 mph 0.00 in Snow Light Snow
9:57 PM 15.8 °F -3.7 °F 6.8 °F 68% 30.05 in 2.0 mi WSW 27.6 mph 38.0 mph 0.00 in Snow Light Snow
10:00 PM 15.8 °F -5.2 °F 6.8 °F 68% 30.05 in 5.0 mi West 33.4 mph 40.3 mph 0.00 in Snow Light Snow
10:17 PM 15.8 °F -4.4 °F 5.0 °F 62% 30.05 in 8.0 mi West 29.9 mph 39.1 mph 0.00 in Snow Light Snow
10:44 PM 14.0 °F -6.8 °F 6.8 °F 73% 30.06 in 1.8 mi West 29.9 mph 42.6 mph 0.00 in Snow Light Snow
10:53 PM 14.0 °F -7.1 °F 8.1 °F 77% 30.09 in 1.5 mi West 31.1 mph 38.0 mph 0.00 in Snow Light Snow
11:19 PM 12.2 °F -8.6 °F 8.6 °F 85% 30.06 in 0.8 mi West 27.6 mph 36.8 mph 0.00 in Snow Light Snow
11:28 PM 12.2 °F -10.2 °F 8.6 °F 85% 30.06 in 1.5 mi West 33.4 mph 39.1 mph 0.00 in Snow Light Snow
11:36 PM 14.0 °F -5.5 °F 6.8 °F 73% 30.07 in 2.5 mi WSW 25.3 mph 39.1 mph 0.00 in Snow Light Snow
11:38 PM 14.0 °F -5.1 °F 5.0 °F 67% 30.07 in 3.0 mi West 24.2 mph 39.1 mph 0.00 in Snow Light Snow
11:53 PM 14.0 °F -5.8 °F 5.0 °F 67% 30.10 in 4.0 mi West 26.5 mph 35.7 mph 0.00 in Snow Light Snow